Wind_Speed
26 24 23 22 20 18 17 15 14 12 11 10 9 7 6 5 4 4 3 3 3 3 3 4 5 6 7 7 8 9 10 11 13 14 15 16 17 18 18 19 19 19
27 26 25 24 22 20 19 18 16 14 14 12 11 10 9 8 7 7 6 5 5 5 5 5 6 7 7 8 8 9 10 11 12 14 15 16 17 17 18 18 18 19
29 29 27 26 24 22 21 20 18 17 16 15 13 13 12 11 11 10 9 8 7 7 6 6 7 7 8 8 8 8 9 10 12 14 15 16 16 17 18 18 18 18
31 31 29 28 26 25 24 23 21 20 19 17 16 16 15 14 13 13 12 11 10 9 9 8 8 8 8 8 8 8 9 10 11 13 14 16 16 17 17 18 18 18
32 32 30 29 28 28 27 25 24 22 21 20 20 19 17 17 16 15 15 14 13 12 11 10 10 10 9 9 9 9 9 9 10 11 13 15 16 17 17 18 18 19
32 32 32 31 31 31 30 28 26 25 24 23 22 21 20 19 18 18 17 16 15 14 13 13 12 12 11 10 9 9 9 9 10 11 13 15 16 17 17 18 18 19
31 32 32 32 33 33 33 31 29 28 27 26 25 24 23 22 21 21 20 19 18 16 15 15 14 14 13 12 11 10 10 10 10 11 12 14 16 17 17 18 18 19
31 32 32 32 33 34 34 33 32 30 30 29 28 26 25 24 24 23 22 21 20 19 17 17 16 16 15 14 13 11 11 11 11 11 12 14 16 17 18 18 18 19
31 32 32 32 32 34 35 35 33 32 32 31 30 28 28 27 26 25 25 24 22 21 20 19 19 18 17 16 15 13 13 12 12 12 12 14 15 17 17 18 18 19
32 33 33 32 32 32 33 34 34 33 33 32 31 31 30 29 28 27 27 26 24 23 22 22 21 20 19 18 17 16 15 14 14 13 13 14 16 17 17 17 18 19
31 33 35 34 33 32 32 33 33 33 33 33 32 32 31 30 30 29 28 27 26 25 24 24 23 22 22 20 19 18 17 16 15 15 14 15 16 17 17 17 18 19
30 32 35 36 35 33 32 32 32 32 32 32 32 32 32 31 31 30 29 27 27 27 26 25 25 24 23 22 21 20 19 18 17 16 16 16 17 18 18 18 18 19
30 32 34 35 34 33 32 32 32 32 31 31 31 31 31 31 31 30 29 28 28 28 28 27 26 25 24 24 23 22 21 20 19 18 17 17 18 19 19 18 18 19
32 32 33 34 33 31 32 33 34 33 32 32 31 31 31 31 30 29 28 28 29 29 28 27 27 26 26 25 25 24 22 22 21 20 19 19 19 19 19 19 19 20
33 32 33 33 33 31 31 33 35 35 34 34 33 32 32 31 30 29 29 29 29 29 29 28 27 26 26 27 26 25 24 23 23 22 21 21 21 20 20 20 20 20
34 33 33 34 34 33 32 33 35 36 36 36 35 34 33 32 31 30 30 30 30 29 29 28 27 26 27 27 27 26 25 25 25 24 23 23 22 22 21 21 21 21
35 34 34 34 35 35 34 34 34 35 37 37 37 37 36 34 33 32 31 30 30 30 29 28 27 27 27 28 28 27 26 26 26 25 24 24 24 23 23 23 22 23
36 36 35 35 35 36 36 36 35 34 36 37 38 38 38 37 35 34 32 31 31 31 30 28 27 27 28 29 28 28 28 28 27 27 26 26 25 24 24 24 24 24
36 37 37 36 36 36 37 37 37 36 37 37 37 38 38 39 38 37 35 33 33 32 31 29 28 28 29 29 29 29 29 29 29 28 27 27 27 26 25 25 25 26
36 37 38 37 36 36 36 38 39 40 39 38 37 37 39 39 39 38 37 36 35 33 32 30 29 29 29 30 30 30 30 31 31 30 29 29 29 28 27 27 27 28
35 37 38 38 37 36 36 37 40 42 41 40 39 39 39 39 38 38 38 38 36 35 34 33 32 31 31 31 31 31 32 33 32 31 31 31 31 30 29 29 29 30
36 38 39 39 38 37 37 37 39 40 41 41 41 40 39 38 37 38 38 38 37 36 35 35 34 33 33 34 34 34 35 35 34 33 33 33 33 32 31 31 31 32
36 38 40 40 39 39 39 38 38 38 38 39 40 40 39 38 38 38 37 36 36 37 36 36 35 35 36 36 37 37 37 37 36 35 35 35 35 34 33 33 33 33
36 38 41 42 41 41 41 40 38 37 36 37 38 39 39 39 38 38 37 37 38 38 37 36 36 37 38 38 39 40 39 39 38 38 38 37 36 36 36 36 35 35
36 38 41 43 44 43 42 41 39 37 36 36 37 38 39 39 39 39 39 39 40 39 38 37 36 37 38 39 40 41 41 41 41 41 40 40 38 38 39 38 38 37
37 38 41 44 45 45 44 43 41 39 37 37 36 37 37 38 39 40 41 41 41 40 39 37 37 38 39 40 41 41 41 41 41 42 42 41 40 40 41 41 39 38
Wind_Direction
214 215 216 218 218 218 218 218 220 220 221 224 229 233 238 244 250 256 264 273 281 287 296 306 315 322 328 337 347 356 4 11 16 18 18 17 14 12 10 9 9 7
218 218 219 221 221 221 222 224 225 226 228 231 235 239 244 250 255 262 267 270 276 284 292 301 309 314 320 327 335 344 353 0 7 11 12 11 9 7 6 6 6 4
221 221 221 223 225 225 225 227 229 231 233 235 238 241 245 249 254 259 264 268 272 279 286 293 301 307 313 319 327 337 346 354 2 6 6 5 3 1 2 3 2 1
222 223 223 225 227 227 228 229 230 233 236 238 239 242 244 248 252 257 262 266 270 273 279 286 292 300 306 312 320 328 337 347 356 0 1 360 357 356 357 359 359 358
223 225 226 226 229 230 230 230 231 234 237 239 241 243 245 247 251 255 259 263 266 271 276 281 287 293 300 306 311 317 324 334 346 353 356 355 352 352 353 355 356 355
223 226 226 227 230 232 233 233 233 235 237 240 243 245 247 248 251 254 257 260 264 268 273 279 285 289 294 299 303 306 311 320 333 344 350 350 348 348 349 352 353 352
222 226 227 227 229 232 234 235 234 235 237 240 243 246 248 250 252 254 257 260 264 267 272 277 281 285 289 292 295 297 300 308 321 332 341 345 344 343 345 348 349 348
221 224 227 227 229 232 234 236 236 236 238 241 243 246 249 251 253 255 258 261 264 267 271 274 278 282 284 288 290 291 293 299 308 318 329 337 339 339 340 342 344 344
224 225 227 227 229 231 234 237 237 238 239 241 243 245 248 250 252 255 258 260 263 266 268 272 275 279 281 283 285 285 286 290 296 305 316 326 332 333 334 336 338 338
225 228 229 229 229 230 233 236 238 238 240 241 243 245 247 249 252 254 257 260 262 265 267 269 273 277 279 281 282 282 281 282 288 296 306 315 322 326 329 330 332 333
226 229 231 231 230 230 232 236 238 239 240 241 243 245 246 248 251 253 256 258 261 264 266 268 271 274 277 279 280 280 279 279 282 289 298 306 313 320 324 325 325 327
228 229 232 234 233 231 232 235 238 240 241 241 242 244 246 248 250 252 255 258 260 263 265 267 270 272 275 277 277 278 278 278 279 285 292 298 304 312 319 321 321 322
230 229 233 237 237 234 233 234 237 239 240 242 242 243 245 246 249 251 254 256 259 261 263 265 268 270 273 274 275 277 278 277 278 280 286 291 297 305 313 316 316 317
231 231 233 238 240 237 234 235 236 238 240 241 242 243 244 245 247 249 252 254 256 259 261 264 266 268 271 272 274 275 277 277 277 278 281 286 292 299 307 312 312 313
233 232 232 236 239 238 235 234 235 237 238 240 241 242 243 244 245 247 249 251 254 256 259 262 264 267 268 271 272 274 275 276 275 276 278 283 288 294 301 307 308 309
233 233 233 234 236 238 236 235 235 237 238 240 241 242 243 244 244 245 246 248 251 254 257 260 262 265 267 269 271 272 273 274 274 274 275 280 284 290 296 302 305 306
233 233 233 234 235 237 238 237 236 237 239 241 242 243 244 244 245 245 245 247 250 253 255 258 260 263 265 267 269 271 271 272 272 272 273 277 281 286 291 297 301 303
236 234 234 234 235 237 239 239 238 237 239 241 242 244 245 245 245 245 246 247 249 251 254 256 259 261 263 266 267 269 270 271 271 271 272 275 279 283 287 292 297 299
238 236 235 236 236 237 239 240 240 238 238 239 241 243 245 246 246 246 246 247 248 250 252 254 257 259 262 264 266 268 269 270 270 271 272 274 278 281 284 288 292 295
240 237 236 236 237 237 239 241 240 239 238 238 239 242 244 245 246 247 247 247 248 250 251 253 255 257 260 262 265 266 268 268 269 271 272 275 277 280 282 285 289 292
242 238 236 235 236 237 238 240 241 241 240 238 238 240 242 244 246 247 248 249 249 250 251 252 254 256 259 261 263 265 266 267 268 270 272 274 276 279 281 283 286 289
242 239 236 235 236 237 237 239 241 241 241 240 240 240 242 244 246 247 248 250 251 251 252 252 254 255 257 260 261 262 264 265 267 269 271 273 275 277 279 281 284 286
241 240 237 235 235 236 237 239 240 242 244 244 243 243 242 243 245 247 249 250 252 252 253 254 255 255 257 258 259 261 262 264 266 267 269 271 273 275 277 279 281 283
241 240 238 236 235 236 237 238 240 241 244 245 246 246 245 244 245 247 249 250 251 252 253 254 255 256 257 258 259 260 261 263 264 266 267 269 271 273 275 277 278 280
241 240 238 236 235 235 237 238 238 239 241 243 245 247 246 245 245 246 247 248 249 250 251 253 254 256 257 258 260 261 261 262 263 264 265 267 269 271 273 274 276 278
241 240 239 237 236 236 236 238 239 239 239 240 241 243 244 245 245 245 246 247 248 250 251 251 253 254 256 257 259 261 262 263 263 264 264 266 267 269 270 271 273 275
Height
11011 11013 11015 11016 11017 11018 11019 11020 11021 11021 11022 11023 11023 11024 11025 11025 11026 11026 11026 11026 11026 11026 11026 11026 11026 11026 11025 11025 11024 11023 11023 11022 11021 11020 11020 11019 11018 11017 11017 11016 11015 11013
11010 11011 11013 11014 11016 11017 11018 11019 11020 11020 11021 11022 11023 11023 11024 11024 11025 11025 11026 11026 11026 11026 11026 11026 11026 11026 11025 11025 11024 11023 11023 11022 11021 11021 11020 11019 11018 11017 11016 11015 11014 11013
11008 11009 11011 11013 11015 11016 11017 11018 11018 11019 11020 11021 11022 11022 11023 11023 11024 11024 11025 11025 11025 11025 11025 11025 11025 11025 11025 11025 11024 11023 11023 11022 11022 11021 11020 11019 11018 11017 11016 11015 11014 11013
11006 11007 11009 11011 11013 11014 11015 11016 11017 11018 11019 11020 11020 11021 11022 11022 11023 11023 11024 11024 11024 11025 11025 11025 11025 11025 11024 11024 11024 11023 11023 11022 11022 11021 11020 11019 11018 11017 11016 11015 11014 11012
11004 11005 11008 11010 11011 11012 11013 11014 11015 11016 11017 11018 11019 11020 11020 11021 11021 11022 11022 11023 11023 11024 11024 11024 11024 11024 11024 11024 11024 11023 11023 11022 11022 11021 11020 11020 11019 11017 11016 11015 11014 11012
11002 11003 11005 11007 11009 11010 11011 11013 11014 11015 11016 11017 11017 11018 11019 11019 11020 11020 11021 11022 11022 11023 11023 11023 11023 11023 11023 11023 11023 11023 11022 11022 11021 11021 11020 11019 11018 11017 11016 11015 11013 11012
11000 11001 11003 11005 11006 11008 11009 11010 11012 11013 11014 11015 11016 11017 11017 11018 11019 11019 11020 11020 11021 11021 11022 11022 11022 11022 11022 11022 11022 11022 11021 11021 11020 11020 11019 11018 11017 11016 11015 11014 11013 11011
10998 10999 11000 11002 11004 11005 11007 11008 11010 11011 11012 11013 11014 11015 11016 11017 11017 11017 11018 11019 11019 11020 11020 11020 11021 11021 11021 11021 11021 11021 11020 11020 11019 11019 11018 11018 11016 11015 11014 11013 11012 11011
10996 10997 10998 11000 11001 11003 11004 11006 11007 11009 11010 11011 11012 11013 11014 11015 11015 11016 11016 11017 11018 11019 11019 11019 11019 11019 11020 11020 11019 11019 11019 11018 11018 11018 11017 11017 11016 11015 11014 11013 11012 11010
10994 10994 10995 10997 10998 11000 11002 11003 11005 11006 11007 11009 11010 11011 11012 11013 11013 11014 11014 11015 11016 11017 11017 11017 11018 11018 11018 11018 11018 11018 11018 11017 11017 11017 11016 11016 11015 11014 11013 11012 11011 11010
10991 10992 10992 10993 10995 10998 10999 11001 11002 11004 11005 11006 11007 11008 11009 11010 11011 11012 11012 11013 11014 11015 11015 11016 11016 11016 11017 11017 11017 11016 11016 11016 11016 11016 11015 11015 11014 11013 11012 11011 11010 11009
10988 10989 10989 10990 10992 10995 10997 10998 11000 11001 11002 11004 11005 11006 11007 11008 11008 11009 11010 11011 11012 11012 11013 11014 11014 11015 11015 11015 11015 11015 11015 11014 11014 11014 11014 11013 11013 11012 11011 11010 11009 11008
10984 10985 10985 10987 10989 10992 10994 10995 10996 10998 11000 11001 11002 11003 11004 11005 11005 11006 11008 11009 11009 11010 11010 11011 11012 11013 11013 11013 11013 11013 11013 11013 11013 11013 11012 11012 11011 11010 11010 11009 11008 11007
10980 10982 10983 10984 10986 10989 10991 10993 10993 10995 10997 10998 10999 11000 11001 11002 11002 11004 11005 11006 11006 11007 11007 11009 11009 11010 11011 11011 11011 11011 11011 11010 11010 11010 11010 11010 11010 11009 11008 11007 11006 11005
10976 10979 10980 10981 10983 10985 10988 10989 10990 10991 10993 10994 10996 10997 10998 10998 11000 11001 11002 11002 11003 11003 11004 11005 11006 11008 11008 11008 11008 11008 11008 11008 11008 11008 11008 11008 11008 11007 11007 11006 11005 11004
10973 10975 10977 10978 10979 10981 10983 10985 10986 10988 10989 10991 10992 10993 10994 10995 10996 10997 10998 10999 11000 11000 11001 11002 11003 11005 11005 11005 11005 11006 11006 11006 11006 11006 11006 11006 11006 11005 11005 11004 11003 11002
10969 10971 10973 10974 10976 10977 10979 10981 10983 10984 10986 10987 10988 10990 10991 10992 10993 10994 10995 10996 10996 10997 10998 10999 11000 11002 11002 11002 11002 11003 11003 11003 11003 11003 11004 11004 11003 11003 11002 11002 11001 11000
10965 10967 10969 10970 10972 10973 10975 10976 10978 10980 10982 10983 10984 10986 10987 10988 10989 10990 10992 10993 10993 10994 10995 10996 10998 10998 10998 10999 10999 11000 11000 11000 11000 11000 11001 11001 11001 11001 11000 11000 10999 10998
10961 10963 10965 10967 10968 10970 10971 10972 10974 10976 10977 10978 10980 10982 10983 10984 10986 10987 10988 10989 10990 10991 10992 10993 10994 10995 10995 10995 10996 10996 10996 10997 10997 10997 10998 10998 10998 10998 10998 10997 10997 10996
10957 10959 10961 10963 10965 10966 10968 10969 10969 10970 10972 10974 10976 10977 10978 10980 10981 10983 10985 10985 10986 10988 10989 10990 10991 10992 10992 10992 10993 10993 10993 10993 10993 10994 10994 10995 10995 10995 10995 10995 10994 10993
10952 10954 10956 10958 10960 10962 10963 10964 10964 10965 10967 10969 10971 10972 10973 10975 10977 10979 10980 10982 10983 10984 10985 10986 10988 10988 10989 10989 10989 10989 10989 10989 10990 10990 10991 10991 10991 10991 10991 10991 10991 10990
10948 10949 10951 10953 10956 10957 10958 10959 10960 10960 10962 10964 10966 10968 10969 10971 10973 10974 10976 10977 10979 10980 10981 10983 10984 10985 10985 10985 10985 10985 10985 10985 10986 10987 10987 10987 10987 10987 10988 10988 10987 10987
10943 10944 10946 10948 10951 10952 10953 10954 10955 10957 10959 10960 10962 10963 10965 10967 10968 10970 10972 10973 10975 10976 10977 10978 10980 10980 10980 10981 10981 10981 10981 10981 10982 10983 10983 10983 10983 10983 10984 10984 10983 10983
10938 10940 10941 10944 10945 10947 10948 10950 10951 10953 10955 10957 10957 10959 10960 10962 10964 10965 10967 10968 10969 10970 10972 10974 10975 10975 10975 10976 10976 10976 10977 10977 10978 10979 10979 10979 10980 10980 10979 10979 10979 10979
10933 10935 10937 10938 10940 10941 10943 10945 10947 10949 10951 10952 10953 10954 10956 10957 10959 10960 10961 10962 10964 10965 10967 10969 10970 10970 10970 10971 10971 10971 10972 10972 10973 10974 10974 10975 10976 10975 10974 10974 10974 10974
10928 10930 10931 10933 10934 10936 10939 10941 10943 10945 10947 10948 10949 10950 10951 10952 10953 10954 10955 10957 10958 10959 10961 10963 10964 10964 10965 10965 10965 10965 10966 10967 10968 10968 10969 10970 10971 10970 10969 10969 10970 10970